H1 CPF  2  HTS 2024  7 28 12  210  1 etalon1    NONE
H2  8900103 0525    19751 2024 07 28  0  0  0 2024 08 02  0  0  0   900 1 1  0 0 0 1
H5  0.5580
H9
10 0 60522   59400.00000  0      -9685759.960       6389132.937     -22670121.251
10 0 60522   60300.00000  0     -10332059.285       3636623.250     -22998236.465
10 0 60522   61200.00000  0     -11180079.727        926962.773     -22877916.661
10 0 60522   62100.00000  0     -12207102.787      -1673566.164     -22311871.107
10 0 60522   63000.00000  0     -13379373.282      -4104138.108     -21311498.837
10 0 60522   63900.00000  0     -14653485.834      -6311666.055     -19896636.815
10 0 60522   64800.00000  0     -15978192.338      -8252748.198     -18095144.832
10 0 60522   65700.00000  0     -17296552.692      -9895201.376     -15942337.321
10 0 60522   66600.00000  0     -18548337.138     -11219120.627     -13480274.899
10 0 60522   67500.00000  0     -19672578.746     -12217424.380     -10756930.864
10 0 60522   68400.00000  0     -20610168.938     -12895866.474      -7825249.826
10 0 60522   69300.00000  0     -21306387.842     -13272518.234      -4742117.317
10 0 60522   70200.00000  0     -21713264.612     -13376745.620      -1567260.444
10 0 60522   71100.00000  0     -21791670.355     -13247726.950       1637899.471
10 0 60522   72000.00000  0     -21513057.772     -12932575.158       4811420.839
10 0 60522   72900.00000  0     -20860776.406     -12484144.309       7892020.803
10 0 60522   73800.00000  0     -19830909.898     -11958612.456      10820238.027
10 0 60522   74700.00000  0     -18432601.206     -11412941.621      13539558.557
10 0 60522   75600.00000  0     -16687852.467     -10902320.191      15997484.967
10 0 60522   76500.00000  0     -14630807.364     -10477693.471      18146530.104
10 0 60522   77400.00000  0     -12306544.562     -10183484.317      19945118.145
10 0 60522   78300.00000  0      -9769430.381     -10055598.016      21358377.227
10 0 60522   79200.00000  0      -7081096.499     -10119794.136      22358809.586
10 0 60522   80100.00000  0      -4308123.577     -10390493.375      22926827.040
10 0 60522   81000.00000  0      -1519523.731     -10870070.055      23051141.581
10 0 60522   81900.00000  0       1215876.812     -11548661.393      22729002.982
10 0 60522   82800.00000  0       3832048.951     -12404503.878      21966277.584
10 0 60522   83700.00000  0       6268259.486     -13404785.527      20777364.863
10 0 60522   84600.00000  0       8471354.835     -14506981.506      19184951.027
10 0 60522   85500.00000  0      10397735.015     -15660620.269      17219601.696
10 0 60523       0.00000  0      12014935.131     -16809408.829      14919198.778
10 0 60523     900.00000  0      13302747.084     -17893629.922      12328229.807
10 0 60523    1800.00000  0      14253832.899     -18852711.282       9496941.307
10 0 60523    2700.00000  0      14873802.030     -19627858.807       6480370.996
10 0 60523    3600.00000  0      15180747.674     -20164641.399       3337276.836
10 0 60523    4500.00000  0      15204260.335     -20415416.243        128983.795
10 0 60523    5400.00000  0      14983959.674     -20341489.119      -3081828.285
10 0 60523    6300.00000  0      14567606.987     -19914915.099      -6232370.387
10 0 60523    7200.00000  0      14008879.358     -19119860.079      -9260996.958
10 0 60523    8100.00000  0      13364901.784     -17953462.469     -12108438.318
10 0 60523    9000.00000  0      12693644.459     -16426156.193     -14718985.949
10 0 60523    9900.00000  0      12051298.485     -14561439.699     -17041604.822
10 0 60523   10800.00000  0      11489744.158     -12395100.077     -19030948.747
10 0 60523   11700.00000  0      11054221.669      -9973925.197     -20648257.229
10 0 60523   12600.00000  0      10781304.801      -7353959.028     -21862115.340
10 0 60523   13500.00000  0      10697264.435      -4598374.923     -22649061.573
10 0 60523   14400.00000  0      10816891.242      -1775057.721     -22994032.376
10 0 60523   15300.00000  0      11142826.518       1046002.510     -22890635.878
10 0 60523   16200.00000  0      11665427.868       3795395.021     -22341251.211
10 0 60523   17100.00000  0      12363173.258       6406938.616     -21356953.535
10 0 60523   18000.00000  0      13203583.947       8820187.394     -19957268.475
10 0 60523   18900.00000  0      14144624.922      10982688.772     -18169762.978
10 0 60523   19800.00000  0      15136521.589      12851901.794     -16029482.632
10 0 60523   20700.00000  0      16123914.436      14396698.652     -13578248.196
10 0 60523   21600.00000  0      17048259.800      15598390.218     -10863826.482
10 0 60523   22500.00000  0      17850375.242      16451236.522      -7938992.707
10 0 60523   23400.00000  0      18473022.709      16962424.606      -4860503.104
10 0 60523   24300.00000  0      18863421.723      17151518.164      -1687997.828
10 0 60523   25200.00000  0      18975588.338      17049404.919       1517144.939
10 0 60523   26100.00000  0      18772403.284      16696788.077       4692982.266
10 0 60523   27000.00000  0      18227324.179      16142286.387       7778185.626
10 0 60523   27900.00000  0      17325671.568      15440222.968      10713204.621
10 0 60523   28800.00000  0      16065435.994      14648195.200      13441394.575
10 0 60523   29700.00000  0      14457572.846      13824526.534      15910088.155
10 0 60523   30600.00000  0      12525772.374      13025705.443      18071592.277
10 0 60523   31500.00000  0      10305713.376      12303917.071      19884092.971
10 0 60523   32400.00000  0       7843829.738      11704769.227      21312452.370
10 0 60523   33300.00000  0       5195638.541      11265306.528      22328883.719
10 0 60523   34200.00000  0       2423696.074      11012395.011      22913492.131
10 0 60523   35100.00000  0       -404736.783      10961544.693      23054670.807
10 0 60523   36000.00000  0      -3220226.312      11116220.149      22749344.525
10 0 60523   36900.00000  0      -5953792.913      11467669.500      22003054.490
10 0 60523   37800.00000  0      -8539526.726      11995281.251      20829881.056
10 0 60523   38700.00000  0     -10917085.053      12667456.753      19252203.463
10 0 60523   39600.00000  0     -13033968.525      13442964.610      17300298.545
10 0 60523   40500.00000  0     -14847481.145      14272722.882      15011783.405
10 0 60523   41400.00000  0     -16326291.452      15101936.414      12430910.185
10 0 60523   42300.00000  0     -17451527.955      15872500.734       9607724.376
10 0 60523   43200.00000  0     -18217360.952      16525571.628       6597101.345
10 0 60523   44100.00000  0     -18631044.294      17004191.277       3457678.953
10 0 60523   45000.00000  0     -18712413.587      17255858.251        250707.032
10 0 60523   45900.00000  0     -18492860.860      17234930.090      -2961162.985
10 0 60523   46800.00000  0     -18013828.630      16904753.547      -6115123.000
10 0 60523   47700.00000  0     -17324887.619      16239428.875      -9149461.155
10 0 60523   48600.00000  0     -16481480.917      15225130.069     -12004795.548
10 0 60523   49500.00000  0     -15542432.307      13860922.320     -14625261.825
10 0 60523   50400.00000  0     -14567326.973      12159039.883     -16959628.748
10 0 60523   51300.00000  0     -13613878.325      10144611.333     -18962317.664
10 0 60523   52200.00000  0     -12735395.097       7854843.365     -20594304.224
10 0 60523   53100.00000  0     -11978457.990       5337697.968     -21823883.754
10 0 60523   54000.00000  0     -11380905.477       2650119.641     -22627285.110
10 0 60523   54900.00000  0     -10970214.297       -144111.468     -22989121.539
10 0 60523   55800.00000  0     -10762342.468      -2976809.019     -22902670.948
10 0 60523   56700.00000  0     -10761082.180      -5777989.566     -22369981.798
10 0 60523   57600.00000  0     -10957947.655      -8478551.461     -21401804.637
10 0 60523   58500.00000  0     -11332600.030     -11012911.634     -20017352.825
10 0 60523   59400.00000  0     -11853788.460     -13321490.979     -18243899.357
10 0 60523   60300.00000  0     -12480765.004     -15352946.292     -16116219.728
10 0 60523   61200.00000  0     -13165111.256     -17066058.049     -13675893.491
10 0 60523   62100.00000  0     -13852897.911     -18431198.277     -10970479.563
10 0 60523   63000.00000  0     -14487085.157     -19431320.702      -8052582.345
10 0 60523   63900.00000  0     -15010062.409     -20062435.380      -4978827.356
10 0 60523   64800.00000  0     -15366220.767     -20333551.474      -1808766.402
10 0 60523   65700.00000  0     -15504450.888     -20266093.622       1396266.863
10 0 60523   66600.00000  0     -15380462.575     -19892818.817       4574329.566
10 0 60523   67500.00000  0     -14958830.151     -19256280.826       7664048.927
10 0 60523   68400.00000  0     -14214679.294     -18406907.309      10605786.931
10 0 60523   69300.00000  0     -13134945.809     -17400770.140      13342769.637
10 0 60523   70200.00000  0     -11719154.336     -16297141.481      15822161.220
10 0 60523   71100.00000  0      -9979684.452     -15155936.527      17996064.002
10 0 60523   72000.00000  0      -7941512.253     -14035148.094      19822427.055
10 0 60523   72900.00000  0      -5641436.552     -12988378.439      21265847.509
10 0 60523   73800.00000  0      -3126819.515     -12062569.719      22298250.386
10 0 60523   74700.00000  0       -453891.031     -11296026.571      22899434.622
10 0 60523   75600.00000  0       2314316.186     -10716812.709      23057474.906
10 0 60523   76500.00000  0       5110318.630     -10341588.568      22768971.075
10 0 60523   77400.00000  0       7864726.977     -10174939.407      22039139.049
10 0 60523   78300.00000  0      10508881.306     -10209223.572      20881739.730
10 0 60523   79200.00000  0      12977469.334     -10424949.436      19318844.891
10 0 60523   80100.00000  0      15211020.134     -10791667.747      17380441.920
99